• In Uzbekistan
  • List of Countries
  • For 7 days
  • Water Temperature
  • Satellite Maps
  • Weather Map
  • Weather Widgets
  • user-avatar
    Login

    Hourly Weather Milowka

    Today, 21 May, Monday

    Time Temperature Precipitation Wind Pressure Humidity
    00:00 +10°C° 0 mm 1 mps 740 mmHg 87%
    01:00 +10°C° 0 mm 1 mps 739 mmHg 88%
    02:00 +9°C° 0 mm 1 mps 739 mmHg 89%
    03:00 +9°C° 0 mm 1 mps 739 mmHg 89%
    04:00 +8°C° 0 mm 1 mps 739 mmHg 90%
    05:00 +9°C° 0 mm 2 mps 739 mmHg 84%
    06:00 +12°C° 0 mm 2 mps 739 mmHg 79%
    07:00 +14°C° 0 mm 3 mps 739 mmHg 71%
    08:00 +16°C° 0 mm 3 mps 739 mmHg 66%
    09:00 +17°C° 0 mm 4 mps 739 mmHg 60%
    10:00 +17°C° 0 mm 5 mps 739 mmHg 55%
    11:00 +19°C° 0 mm 5 mps 739 mmHg 54%
    12:00 +19°C° 0 mm 5 mps 738 mmHg 54%
    13:00 +20°C° 0 mm 4 mps 738 mmHg 53%
    14:00 +19°C° 0.1 mm 4 mps 737 mmHg 56%
    15:00 +19°C° 0.1 mm 4 mps 737 mmHg 59%
    16:00 +19°C° 0.1 mm 4 mps 737 mmHg 63%
    17:00 +17°C° 0 mm 4 mps 737 mmHg 69%
    18:00 +16°C° 0 mm 3 mps 736 mmHg 75%
    19:00 +13°C° 0 mm 3 mps 736 mmHg 82%
    20:00 +12°C° 0 mm 3 mps 736 mmHg 84%
    21:00 +12°C° 0 mm 2 mps 736 mmHg 87%
    22:00 +10°C° 0 mm 2 mps 736 mmHg 89%
    23:00 +10°C° 0 mm 2 mps 736 mmHg 90%

    Tomorrow, 22 May, Tuesday

    Time Temperature Precipitation Wind Pressure Humidity
    00:00 +9°C° 0 mm 2 mps 736 mmHg 91%
    01:00 +9°C° 0 mm 2 mps 735 mmHg 91%
    02:00 +9°C° 0 mm 2 mps 735 mmHg 92%
    03:00 +9°C° 0 mm 2 mps 735 mmHg 93%
    04:00 +9°C° 0 mm 1 mps 735 mmHg 93%
    05:00 +11°C° 0 mm 1 mps 735 mmHg 88%
    06:00 +13°C° 0 mm 2 mps 735 mmHg 83%
    07:00 +16°C° 0 mm 2 mps 735 mmHg 78%
    08:00 +18°C° 0 mm 2 mps 735 mmHg 71%
    09:00 +20°C° 0 mm 2 mps 735 mmHg 64%
    10:00 +23°C° 0 mm 2 mps 736 mmHg 57%
    11:00 +23°C° 0.1 mm 2 mps 735 mmHg 55%
    12:00 +24°C° 0.1 mm 2 mps 735 mmHg 53%
    13:00 +24°C° 0.1 mm 2 mps 735 mmHg 51%
    14:00 +24°C° 0.2 mm 2 mps 735 mmHg 54%
    15:00 +24°C° 0.2 mm 2 mps 735 mmHg 56%
    16:00 +24°C° 0.2 mm 2 mps 735 mmHg 58%
    17:00 +23°C° 0.1 mm 2 mps 735 mmHg 65%
    18:00 +20°C° 0.1 mm 2 mps 735 mmHg 72%
    19:00 +19°C° 0.1 mm 2 mps 735 mmHg 79%
    20:00 +18°C° 0 mm 2 mps 735 mmHg 82%
    21:00 +17°C° 0 mm 2 mps 735 mmHg 86%
    22:00 +16°C° 0 mm 2 mps 736 mmHg 90%
    23:00 +15°C° 0 mm 2 mps 736 mmHg 90%

    Day after tomorrow, 23 May, Wednesday

    Time Temperature Precipitation Wind Pressure Humidity
    00:00 +15°C° 0 mm 2 mps 736 mmHg 90%
    01:00 +15°C° 0 mm 2 mps 736 mmHg 90%
    02:00 +15°C° 0.2 mm 1 mps 736 mmHg 91%
    03:00 +15°C° 0.2 mm 1 mps 736 mmHg 91%
    04:00 +15°C° 0.2 mm 1 mps 736 mmHg 91%
    05:00 +16°C° 0.4 mm 1 mps 736 mmHg 90%
    06:00 +18°C° 0.4 mm 1 mps 737 mmHg 89%
    07:00 +19°C° 0.4 mm 1 mps 737 mmHg 88%
    08:00 +20°C° 0.6 mm 1 mps 737 mmHg 83%
    09:00 +21°C° 0.6 mm 1 mps 737 mmHg 78%
    10:00 +22°C° 0.6 mm 1 mps 737 mmHg 74%
    11:00 +23°C° 0.8 mm 1 mps 737 mmHg 71%
    12:00 +24°C° 0.8 mm 1 mps 737 mmHg 69%
    13:00 +24°C° 0.8 mm 1 mps 737 mmHg 67%
    14:00 +24°C° 1.3 mm 1 mps 737 mmHg 70%
    15:00 +24°C° 1.3 mm 1 mps 737 mmHg 72%
    16:00 +23°C° 1.3 mm 1 mps 737 mmHg 74%
    17:00 +22°C° 0.6 mm 1 mps 737 mmHg 79%
    18:00 +20°C° 0.6 mm 2 mps 737 mmHg 83%
    19:00 +18°C° 0.6 mm 2 mps 737 mmHg 88%
    20:00 +18°C° 0.2 mm 2 mps 737 mmHg 90%
    21:00 +18°C° 0.2 mm 1 mps 737 mmHg 92%
    22:00 +16°C° 0.2 mm 1 mps 737 mmHg 94%
    23:00 +16°C° 0.4 mm 1 mps 737 mmHg 95%

    24 May, Thursday

    Time Temperature Precipitation Wind Pressure Humidity
    00:00 +16°C° 0.4 mm 2 mps 737 mmHg 96%
    01:00 +15°C° 0.4 mm 2 mps 737 mmHg 97%
    02:00 +15°C° 0.6 mm 2 mps 737 mmHg 97%
    03:00 +15°C° 0.6 mm 2 mps 737 mmHg 97%
    04:00 +16°C° 0.6 mm 2 mps 737 mmHg 97%
    05:00 +16°C° 0.4 mm 2 mps 737 mmHg 97%
    06:00 +16°C° 0.4 mm 3 mps 738 mmHg 96%
    07:00 +17°C° 0.4 mm 3 mps 738 mmHg 95%
    08:00 +17°C° 0.4 mm 3 mps 738 mmHg 93%
    09:00 +18°C° 0.4 mm 4 mps 738 mmHg 91%
    10:00 +18°C° 0.4 mm 4 mps 738 mmHg 89%
    11:00 +19°C° 0.4 mm 4 mps 738 mmHg 88%
    12:00 +19°C° 0.4 mm 5 mps 738 mmHg 87%
    13:00 +19°C° 0.4 mm 5 mps 738 mmHg 86%
    14:00 +19°C° 0.3 mm 5 mps 738 mmHg 85%
    15:00 +20°C° 0.3 mm 5 mps 738 mmHg 83%
    16:00 +20°C° 0.3 mm 5 mps 738 mmHg 82%
    17:00 +19°C° 0.3 mm 4 mps 738 mmHg 85%
    18:00 +19°C° 0.3 mm 3 mps 738 mmHg 87%
    19:00 +18°C° 0.3 mm 3 mps 738 mmHg 90%
    20:00 +17°C° 0.1 mm 2 mps 738 mmHg 92%
    21:00 +16°C° 0.1 mm 2 mps 738 mmHg 93%
    22:00 +15°C° 0.1 mm 2 mps 738 mmHg 95%
    23:00 +15°C° 0 mm 2 mps 738 mmHg 95%

    25 May, Friday

    Time Temperature Precipitation Wind Pressure Humidity
    00:00 +15°C° 0 mm 2 mps 738 mmHg 95%
    01:00 +14°C° 0 mm 1 mps 738 mmHg 95%
    02:00 +14°C° 0 mm 1 mps 738 mmHg 96%
    03:00 +14°C° 0 mm 1 mps 738 mmHg 96%
    04:00 +14°C° 0 mm 1 mps 738 mmHg 96%
    05:00 +15°C° 0 mm 2 mps 739 mmHg 93%
    06:00 +16°C° 0 mm 2 mps 739 mmHg 90%
    07:00 +17°C° 0 mm 3 mps 739 mmHg 87%
    08:00 +19°C° 0 mm 4 mps 739 mmHg 82%
    09:00 +20°C° 0 mm 4 mps 739 mmHg 76%
    10:00 +22°C° 0 mm 5 mps 740 mmHg 71%
    11:00 +22°C° 0.1 mm 5 mps 740 mmHg 67%
    12:00 +23°C° 0.1 mm 5 mps 739 mmHg 64%
    13:00 +23°C° 0.1 mm 5 mps 739 mmHg 61%
    14:00 +23°C° 0 mm 5 mps 739 mmHg 61%
    15:00 +23°C° 0 mm 5 mps 739 mmHg 62%
    16:00 +23°C° 0 mm 5 mps 739 mmHg 62%
    17:00 +22°C° 0 mm 4 mps 739 mmHg 68%
    18:00 +20°C° 0 mm 4 mps 739 mmHg 74%
    19:00 +19°C° 0 mm 3 mps 739 mmHg 80%
    20:00 +17°C° 0 mm 3 mps 740 mmHg 84%
    21:00 +16°C° 0 mm 3 mps 740 mmHg 87%
    22:00 +15°C° 0 mm 2 mps 740 mmHg 91%
    23:00 +15°C° 0 mm 2 mps 740 mmHg 92%

    26 May, Saturday

    Time Temperature Precipitation Wind Pressure Humidity
    00:00 +14°C° 0 mm 2 mps 740 mmHg 93%
    01:00 +14°C° 0 mm 2 mps 740 mmHg 94%
    02:00 +13°C° 0 mm 2 mps 740 mmHg 94%
    03:00 +13°C° 0 mm 2 mps 740 mmHg 95%
    04:00 +12°C° 0 mm 2 mps 741 mmHg 96%
    05:00 +13°C° 0 mm 3 mps 741 mmHg 90%
    06:00 +14°C° 0 mm 4 mps 741 mmHg 85%
    07:00 +17°C° 0 mm 4 mps 741 mmHg 80%
    08:00 +17°C° 0 mm 5 mps 741 mmHg 75%
    09:00 +19°C° 0 mm 5 mps 741 mmHg 70%
    10:00 +20°C° 0 mm 5 mps 741 mmHg 65%
    11:00 +21°C° 0 mm 6 mps 741 mmHg 64%
    12:00 +22°C° 0 mm 6 mps 741 mmHg 63%
    13:00 +22°C° 0 mm 6 mps 741 mmHg 62%
    14:00 +22°C° 0 mm 6 mps 741 mmHg 63%
    15:00 +22°C° 0 mm 5 mps 741 mmHg 65%
    16:00 +22°C° 0 mm 5 mps 741 mmHg 66%
    17:00 +20°C° 0 mm 5 mps 741 mmHg 72%
    18:00 +19°C° 0 mm 4 mps 741 mmHg 78%
    19:00 +18°C° 0 mm 3 mps 741 mmHg 84%
    20:00 +16°C° 0 mm 3 mps 741 mmHg 87%
    21:00 +14°C° 0 mm 3 mps 741 mmHg 90%
    22:00 +14°C° 0 mm 2 mps 741 mmHg 92%
    23:00 +14°C° 0 mm 2 mps 741 mmHg 92%
    Show more